Location: Lourdes
(43.1000°N, 0.0500°W)
Time: 04:59:18
(UTC+00:00)

Sich 1 - Pass Details

Date: 30 November 2020
Orbit: 594 x 625 km, 82.5° (Epoch: 27 January)

Event Time Altitude Azimuth Distance (km) Brightness Sun altitude
Rises 16:47:48 0° 355° (N) 2,898 6.3 -4.3°
Reaches altitude 10° 16:50:04 10° 359° (N) 1,983 5.4 -4.6°
Maximum altitude 16:54:25 61° 80° (E) 694 3.1 -5.4°
Drops below altitude 10° 16:58:41 10° 161° (SSE) 1,947 5.7 -6.1°
Sets 17:00:54 0° 165° (SSE) 2,840 6.6 -6.4°
